Find Starlink 36300

NORAD ID: 68303 Int'l Des: 2026-057 Owner: SPXS Country: US Constellation: starlink operational
LEOCIRCULARRETROGRADE

当前视图

正在加载3D地球...

About Starlink 36300

Starlink 36300 (NORAD 68303) is a starlink constellation satellite (v2 mini) launched Mar 20, 2026 by SPXS of US. It operates in LEO, CIRCULAR, RETROGRADE orbit with a mass of 575.00 kg.

关于 Starlink 36300

正在加载描述...

即将过境

Passes for default location (London). Set your location on the main map for personalized predictions.

高度历史

Loading altitude history...

两行轨道根数

1 68303U 26057K 26170.31617864 .00031023 00000-0 95918-3 0 9996
2 68303 97.2858 297.0456 0000636 80.9078 279.2237 15.33450364 14237
Epoch: Jun 19, 2026 • Age: 22 hours

当前状态

高度 478.1 km
速度 7.63 km/s
星下点 78.19°N, 95.9°W
发射日期 Mar 20, 2026
运行时间 0.2 years
类型 internet

技术详情

分类 Payload
质量 575.00 kg
干质量 530.00 kg
总质量 575.00 kg
长度 0.30 m
直径 4.10 m
跨度 29.00 m
形状 Box + pan
制造商 SPXS
平台类型 Starlink V2MO
阶段状态 In Orbit
所有者/国家 SPXS/US

Most Searched